ECHOSTAR 17

Last updated on Tue Sep 22 2026 00:03:12 GMT+0000 (Coordinated Universal Time)

1 38551U 12035A 26264.48716464 -.00000079 00000+0 00000+0 0 9998 2 38551 0.0186 143.7516 0002091 37.1605 247.7472 1.00271446 52027
UTC large
Height (km)
Speed (km/s)
/
Latitude / Longitude
Inclination (degrees)
Orbital Period (minutes)
Azimuth
Elevation
Range (km)
Doppler Factor

Next 0 passes for location: London (51.5072 / 0.1276)

No passes found over London.
ECHOSTAR 17